• En Estados Unidos
  • Lista de países
  • Para 7 días
  • Temperatura del agua
  • Mapa Satelital
  • El tiempo en el mapa
  • Informadores
  • user-avatar
    Iniciar sesión

    Tiempo cada hora Ordino

    Hoy, 20 Junio, Miércoles

    Tiempo Temperatura Precipitaciones Viento Presión Humedad
    00:00 +13°C° 0 mm 1 mps 637 mmHg 86%
    01:00 +13°C° 0 mm 1 mps 637 mmHg 85%
    02:00 +12°C° 0 mm 1 mps 637 mmHg 84%
    03:00 +12°C° 0 mm 1 mps 637 mmHg 84%
    04:00 +13°C° 0 mm 1 mps 637 mmHg 80%
    05:00 +14°C° 0 mm 1 mps 638 mmHg 76%
    06:00 +15°C° 0 mm 1 mps 638 mmHg 72%
    07:00 +18°C° 0 mm 1 mps 639 mmHg 63%
    08:00 +20°C° 0 mm 1 mps 640 mmHg 54%
    09:00 +21°C° 0 mm 2 mps 640 mmHg 44%
    10:00 +23°C° 0 mm 2 mps 640 mmHg 43%
    11:00 +24°C° 0 mm 2 mps 641 mmHg 42%
    12:00 +24°C° 0 mm 2 mps 641 mmHg 41%
    13:00 +24°C° 0,1 mm 2 mps 640 mmHg 44%
    14:00 +24°C° 0,1 mm 2 mps 640 mmHg 46%
    15:00 +23°C° 0,1 mm 1 mps 640 mmHg 49%
    16:00 +23°C° 0,1 mm 1 mps 639 mmHg 53%
    17:00 +22°C° 0,1 mm 1 mps 639 mmHg 57%
    18:00 +21°C° 0,1 mm 1 mps 639 mmHg 61%
    19:00 +19°C° 0 mm 1 mps 638 mmHg 66%
    20:00 +16°C° 0 mm 1 mps 638 mmHg 72%
    21:00 +15°C° 0 mm 1 mps 638 mmHg 77%
    22:00 +14°C° 0 mm 1 mps 638 mmHg 78%
    23:00 +14°C° 0 mm 1 mps 637 mmHg 79%

    Mañana, 21 Junio, Jueves

    Tiempo Temperatura Precipitaciones Viento Presión Humedad
    00:00 +14°C° 0 mm 1 mps 637 mmHg 79%
    01:00 +13°C° 0 mm 1 mps 637 mmHg 80%
    02:00 +13°C° 0 mm 1 mps 637 mmHg 81%
    03:00 +13°C° 0 mm 1 mps 637 mmHg 82%
    04:00 +14°C° 0 mm 1 mps 637 mmHg 80%
    05:00 +15°C° 0 mm 1 mps 638 mmHg 78%
    06:00 +16°C° 0 mm 1 mps 638 mmHg 76%
    07:00 +19°C° 0 mm 1 mps 639 mmHg 66%
    08:00 +21°C° 0 mm 1 mps 639 mmHg 57%
    09:00 +23°C° 0 mm 1 mps 640 mmHg 47%
    10:00 +24°C° 0 mm 1 mps 640 mmHg 46%
    11:00 +25°C° 0 mm 1 mps 640 mmHg 44%
    12:00 +26°C° 0 mm 1 mps 640 mmHg 43%
    13:00 +24°C° 0,2 mm 1 mps 640 mmHg 48%
    14:00 +23°C° 0,2 mm 1 mps 639 mmHg 53%
    15:00 +22°C° 0,2 mm 1 mps 638 mmHg 58%
    16:00 +22°C° 0,3 mm 1 mps 638 mmHg 63%
    17:00 +21°C° 0,3 mm 1 mps 638 mmHg 67%
    18:00 +20°C° 0,3 mm 1 mps 638 mmHg 72%
    19:00 +19°C° 0,1 mm 1 mps 637 mmHg 77%
    20:00 +17°C° 0,1 mm 2 mps 637 mmHg 81%
    21:00 +16°C° 0,1 mm 2 mps 637 mmHg 86%
    22:00 +15°C° 0 mm 2 mps 637 mmHg 87%
    23:00 +15°C° 0 mm 2 mps 637 mmHg 87%

    Pasado mañana, 22 Junio, Viernes

    Tiempo Temperatura Precipitaciones Viento Presión Humedad
    00:00 +15°C° 0 mm 2 mps 636 mmHg 88%
    01:00 +14°C° 0 mm 2 mps 636 mmHg 88%
    02:00 +14°C° 0 mm 2 mps 636 mmHg 88%
    03:00 +14°C° 0 mm 2 mps 636 mmHg 88%
    04:00 +14°C° 0 mm 2 mps 636 mmHg 87%
    05:00 +15°C° 0 mm 2 mps 637 mmHg 85%
    06:00 +16°C° 0 mm 2 mps 637 mmHg 84%
    07:00 +17°C° 0 mm 2 mps 637 mmHg 76%
    08:00 +19°C° 0 mm 2 mps 638 mmHg 69%
    09:00 +21°C° 0 mm 2 mps 639 mmHg 61%
    10:00 +21°C° 0,2 mm 2 mps 639 mmHg 61%
    11:00 +21°C° 0,2 mm 2 mps 639 mmHg 62%
    12:00 +23°C° 0,2 mm 2 mps 639 mmHg 62%
    13:00 +21°C° 1 mm 2 mps 638 mmHg 64%
    14:00 +21°C° 1 mm 2 mps 638 mmHg 67%
    15:00 +20°C° 1 mm 2 mps 638 mmHg 69%
    16:00 +19°C° 0,7 mm 2 mps 637 mmHg 72%
    17:00 +19°C° 0,7 mm 2 mps 637 mmHg 76%
    18:00 +18°C° 0,7 mm 2 mps 637 mmHg 79%
    19:00 +17°C° 0,3 mm 2 mps 637 mmHg 83%
    20:00 +16°C° 0,3 mm 2 mps 637 mmHg 87%
    21:00 +15°C° 0,3 mm 1 mps 637 mmHg 91%
    22:00 +14°C° 0,1 mm 1 mps 637 mmHg 92%
    23:00 +14°C° 0,1 mm 1 mps 637 mmHg 92%

    23 Junio, Sábado

    Tiempo Temperatura Precipitaciones Viento Presión Humedad
    00:00 +14°C° 0,1 mm 1 mps 636 mmHg 93%
    01:00 +13°C° 0 mm 1 mps 636 mmHg 93%
    02:00 +13°C° 0 mm 1 mps 636 mmHg 93%
    03:00 +13°C° 0 mm 1 mps 636 mmHg 93%
    04:00 +13°C° 0 mm 1 mps 636 mmHg 91%
    05:00 +14°C° 0 mm 1 mps 637 mmHg 88%
    06:00 +13°C° 0 mm 0 mps 637 mmHg 86%
    07:00 +16°C° 0 mm 1 mps 638 mmHg 79%
    08:00 +18°C° 0 mm 1 mps 638 mmHg 72%
    09:00 +20°C° 0 mm 1 mps 639 mmHg 66%
    10:00 +20°C° 0,1 mm 1 mps 639 mmHg 63%
    11:00 +21°C° 0,1 mm 1 mps 639 mmHg 61%
    12:00 +20°C° 0,1 mm 2 mps 639 mmHg 59%
    13:00 +22°C° 0,3 mm 1 mps 639 mmHg 58%
    14:00 +22°C° 0,3 mm 1 mps 638 mmHg 58%
    15:00 +22°C° 0,3 mm 1 mps 638 mmHg 57%
    16:00 +21°C° 0,4 mm 1 mps 638 mmHg 61%
    17:00 +20°C° 0,4 mm 1 mps 637 mmHg 65%
    18:00 +19°C° 0,4 mm 1 mps 637 mmHg 69%
    19:00 +18°C° 0,1 mm 1 mps 637 mmHg 75%
    20:00 +15°C° 0,1 mm 1 mps 636 mmHg 80%
    21:00 +13°C° 0,1 mm 0 mps 636 mmHg 85%
    22:00 +13°C° 0 mm 1 mps 636 mmHg 86%
    23:00 +13°C° 0 mm 1 mps 636 mmHg 88%

    24 Junio, Domingo

    Tiempo Temperatura Precipitaciones Viento Presión Humedad
    00:00 +13°C° 0 mm 1 mps 635 mmHg 89%
    01:00 +12°C° 0 mm 1 mps 635 mmHg 89%
    02:00 +12°C° 0 mm 1 mps 635 mmHg 90%
    03:00 +12°C° 0 mm 1 mps 635 mmHg 90%
    04:00 +13°C° 0 mm 1 mps 635 mmHg 88%
    05:00 +14°C° 0 mm 1 mps 635 mmHg 86%
    06:00 +14°C° 0 mm 0 mps 636 mmHg 84%
    07:00 +16°C° 0 mm 1 mps 636 mmHg 75%
    08:00 +19°C° 0 mm 1 mps 637 mmHg 66%
    09:00 +21°C° 0 mm 1 mps 638 mmHg 57%
    10:00 +21°C° 0 mm 1 mps 638 mmHg 52%
    11:00 +22°C° 0 mm 1 mps 638 mmHg 48%
    12:00 +23°C° 0 mm 2 mps 638 mmHg 44%
    13:00 +23°C° 0,1 mm 2 mps 638 mmHg 44%
    14:00 +23°C° 0,1 mm 2 mps 638 mmHg 43%
    15:00 +23°C° 0,1 mm 1 mps 637 mmHg 43%
    16:00 +22°C° 0,2 mm 1 mps 637 mmHg 49%
    17:00 +21°C° 0,2 mm 1 mps 636 mmHg 54%
    18:00 +20°C° 0,2 mm 1 mps 636 mmHg 60%
    19:00 +18°C° 0,2 mm 1 mps 636 mmHg 66%
    20:00 +15°C° 0,2 mm 1 mps 635 mmHg 73%
    21:00 +13°C° 0,2 mm 1 mps 635 mmHg 79%
    22:00 +12°C° 0 mm 1 mps 635 mmHg 78%
    23:00 +12°C° 0 mm 1 mps 635 mmHg 77%

    25 Junio, Lunes

    Tiempo Temperatura Precipitaciones Viento Presión Humedad
    00:00 +12°C° 0 mm 1 mps 634 mmHg 77%
    01:00 +11°C° 0 mm 1 mps 634 mmHg 77%
    02:00 +11°C° 0 mm 1 mps 634 mmHg 77%
    03:00 +11°C° 0 mm 1 mps 634 mmHg 77%
    04:00 +12°C° 0 mm 1 mps 634 mmHg 75%
    05:00 +13°C° 0 mm 1 mps 635 mmHg 74%
    06:00 +14°C° 0 mm 1 mps 635 mmHg 72%
    07:00 +16°C° 0 mm 1 mps 636 mmHg 63%
    08:00 +19°C° 0 mm 1 mps 637 mmHg 54%
    09:00 +21°C° 0 mm 1 mps 638 mmHg 44%
    10:00 +22°C° 0 mm 1 mps 638 mmHg 43%
    11:00 +23°C° 0 mm 1 mps 638 mmHg 42%
    12:00 +23°C° 0 mm 2 mps 638 mmHg 40%
    13:00 +23°C° 0,1 mm 2 mps 638 mmHg 42%
    14:00 +23°C° 0,1 mm 2 mps 638 mmHg 45%
    15:00 +23°C° 0,1 mm 2 mps 638 mmHg 47%
    16:00 +22°C° 0,1 mm 1 mps 638 mmHg 51%
    17:00 +21°C° 0,1 mm 1 mps 637 mmHg 55%
    18:00 +20°C° 0,1 mm 1 mps 637 mmHg 60%
    19:00 +18°C° 0 mm 1 mps 637 mmHg 66%
    20:00 +15°C° 0 mm 1 mps 637 mmHg 72%
    21:00 +14°C° 0 mm 1 mps 637 mmHg 78%
    22:00 +13°C° 0 mm 1 mps 636 mmHg 79%
    23:00 +13°C° 0 mm 1 mps 636 mmHg 80%
    Mostrar más